Location: Melque
(41.0517°N, 4.4694°W)
Time: 11:33:53
(UTC+00:00)

SKYMED 2 - Pass Details

Date: 17 March 2026
Orbit: 622 x 624 km, 97.9° (Epoch: 14 April)

Event Time Altitude Azimuth Distance (km) Brightness Sun altitude
Rises 05:09:27 0° 154° (SSE) 2,891 7.2 -15.3°
Reaches altitude 10° 05:11:40 10° 150° (SSE) 1,988 6.4 -14.9°
Maximum altitude 05:15:53 54° 74° (ENE) 761 4.4 -14.1°
Drops below altitude 10° 05:20:08 10° 357° (N) 2,002 6.3 -13.3°
Sets 05:22:22 0° 353° (N) 2,913 7.1 -12.9°
